www.pogodaiklimat.ru

Погода и климат >> Архив погоды >> Россия >> Якутия >> Сухана


ПОГОДА в Сухане

  • Прогноз погоды в Сухане
  • Монитор погоды в Сухане

АРХИВ ПОГОДЫ в Сухане

Время (UTC), дата Ветер
(напр.,м/с)
 
Видим.   Явления Облачность Т
(С)
Тd
(С)
f
(%)
Тe
(С)
Тes
(С)
Комфортность P
(гПа)
Po
(гПа)
Тmin
(С)
Tmax
(С)
R
(мм)
R24
(мм)
S
(см)
12 11.08 штиль 0 20 км дым ясно +20.6 +12.3 59 +22 +23 комфорт 1010.4 1001.3 +23.0
15 11.08 штиль 0 20 км дым ясно +13.3 +11.2 87 +13 +13 1010.2 1001.0
18 11.08 штиль 0 20 км ясно +8.8 +8.0 95 +8 +8 1010.8 1001.4
21 11.08 З 1 50 км 8/3 1000 м
[Sc Cs]
+6.0 +5.3 95 +5 +5 1011.4 1001.8
00 12.08 штиль 0 500 м туман 8/3 1000 м
[Sc Cs]
+8.8 +8.0 95 +8 +11 1011.3 1001.9 +5.8
03 12.08 СВ 1 10 км дым {туман} 3/0
[Ci fib]
+18.0 +12.0 68 +19 +27 1010.5 1001.4
06 12.08 С 1 10 км дым {туман} ясно +23.0 +11.7 49 +25 +33 комфорт 1009.9 1001.0
09 12.08 В 1 10 км дым ясно +24.6 +9.2 38 +25 +28 комфорт 1009.5 1000.6
12 12.08 С 1 10 км дым ясно +21.4 +11.5 53 +23 +23 комфорт 1009.9 1001.0 +25.0
15 12.08 С 1 10 км дым ясно +13.6 +11.1 85 +14 +14 1011.1 1001.9
18 12.08 С 1 10 км дым ясно +8.8 +8.0 95 +8 +8 1012.4 1003.0
21 12.08 СЗ 1 10 км дым 3/0
[Ci fib]
+5.9 +4.7 92 +5 +5 1012.5 1002.9
00 13.08 СВ 1 10 км дым 3/0
[Ci fib]
+9.6 +7.6 87 +9 +13 1013.1 1003.7 +5.9
03 13.08 штиль 0 10 км дым 3/0
[Ci fib]
+17.5 +11.9 70 +18 +26 1012.2 1003.1
06 13.08 Ю 1 10 км дым 5/5 600 м
[Cb cap]
+24.6 +11.3 43 +26 +30 жарко 1011.4 1002.5
09 13.08 Ю 1 10 км дым 5/5 600 м
[Cb cap]
+25.7 +9.5 36 +26 +28 жарко 1010.3 1001.4
12 13.08 С 1 10 км дым 4/0
[Ci fib]
+21.1 +12.2 57 +23 +23 комфорт 1010.7 1001.8 +26.0
15 13.08 С 1 10 км дым 4/0
[Ci fib]
+13.5 +11.4 87 +14 +14 1011.3 1002.1
18 13.08 С 1 10 км дым 3/0
[Cs]
+9.2 +8.4 95 +8 +8 1011.7 1002.3
21 13.08 З 1 10 км дым 3/0
[Cs]
+6.2 +5.8 97 +5 +5 1012.3 1002.7
00 14.08 штиль 0 10 км дым 3/0
[Ci fib]
+10.2 +7.7 84 +10 +14 1012.4 1003.0 +6.2
03 14.08 Ю 1 10 км дым 4/3 600 м
[Cb cap Ci fib]
+18.9 +12.3 66 +21 +26 комфорт 1011.6 1002.5
06 14.08 Ю 1 10 км дым 4/3 600 м
[Cb cap Ci fib]
+18.9 +12.3 66 +21 +26 комфорт 1011.6 1002.5
09 14.08 С 1 20 км гроза, ливневой дождь 9/6 600 м
[Cb cap Cs]
+18.7 +13.0 69 +21 +21 комфорт 1012.8 1003.7
12 14.08 С 1 20 км дым {гроза, ливн. осадки} 6/4 600 м
[Cb cap Ci fib]
+17.2 +13.1 77 +18 +18 1014.5 1005.4 +25.4 0.5
15 14.08 С 1 20 км дым 3/0
[Ci fib]
+14.8 +11.9 83 +15 +15 1016.1 1006.9
18 14.08 С 1 20 км дым 10/10 1000 м
[Sc]
+11.7 +9.9 89 +11 +11 1018.1 1008.9
21 14.08 С 1 20 км дым 10/10 1000 м
[Sc]
+10.0 +8.4 90 +9 +9 1019.6 1010.1
00 15.08 СВ 1 50 км 10/10 1000 м
[Sc]
+9.8 +7.7 87 +9 +9 1021.3 1011.8 +9.8
03 15.08 С 1 50 км 10/10 1000 м
[Sc]
+11.1 +7.4 78 +11 +11 1021.7 1012.2
06 15.08 СВ 1 50 км 10/10 1000 м
[Sc]
+11.1 +6.7 74 +11 +11 1022.8 1013.3
09 15.08 СВ 1 50 км 10/10 1000 м
[Sc]
+11.2 +6.5 73 +11 +11 1023.3 1013.8
12 15.08 С 1 50 км 10/10 1000 м
[Sc]
+11.0 +6.4 73 +11 +11 1024.0 1014.5 +11.8
15 15.08 С 1 50 км 10/10 1000 м
[Sc]
+10.0 +5.9 76 +10 +10 1024.6 1015.1
18 15.08 С 1 50 км 10/10 1000 м
[Sc]
+7.4 +5.8 90 +6 +6 1024.9 1015.4
21 15.08 С 1 50 км 8/8 1000 м
[Sc]
+5.6 +4.2 91 +4 +4 1025.2 1015.6
00 16.08 С 1 50 км 3/0
[Ci fib]
+8.4 +4.1 74 +8 +11 1025.7 1016.2 +5.6
03 16.08 С 2 50 км 3/0
[Cs]
+12.8 +6.1 64 +12 +18 1024.9 1015.6
06 16.08 С 3 50 км 3/0
[Cs]
+15.9 +1.1 37 +16 +20 1023.8 1014.5
09 16.08 С 3 50 км 3/0
[Cs]
+17.8 +0.9 32 +18 +20 1022.7 1013.5
12 16.08 С 2 50 км 1/0
[Ci fib]
+15.7 +1.3 38 +16 +16 1022.7 1013.4 +18.1
15 16.08 С 1 50 км ясно +8.6 +1.5 61 +8 +8 1023.4 1013.9
18 16.08 З 1 50 км ясно +1.2 -0.2 90 -1 -1 1023.7 1013.9
21 16.08 С 1 50 км ясно -1.5 -2.1 96 -4 -4 1024.4 1014.6
00 17.08 штиль 0 50 км ясно +7.2 +1.5 67 +7 +11 1023.8 1014.3 -2.0
03 17.08 С 1 50 км ясно +14.9 +1.1 39 +16 +23 1022.2 1012.9
06 17.08 С 1 50 км ясно +18.4 +1.3 32 +20 +27 1020.7 1011.5
09 17.08 С 1 50 км ясно +19.4 -0.9 25 +21 +23 комфорт 1020.1 1010.9
12 17.08 С 1 50 км ясно +17.5 +1.1 33 +19 +19 1020.5 1011.3 +19.4
15 17.08 штиль 0 50 км ясно +9.9 0.0 50 +10 +10 1021.0 1011.5
18 17.08 штиль 0 50 км ясно +1.0 -0.4 90 -0 -0 1021.7 1011.9
21 17.08 З 1 50 км 3/0
[]
-1.7 -2.3 96 -4 -4 1022.1 1012.3
00 18.08 С 1 500 м туман 3/0
[Ci fib]
+2.2 +1.9 98 0 +4 1022.1 1012.5 -1.7
03 18.08 В 1 50 км {туман} 4/0
[Cs]
+9.6 +5.0 73 +9 +16 1021.3 1011.8
06 18.08 В 1 10 км дым {туман} ясно +13.0 +6.2 63 +13 +20 1020.2 1010.9

 

Местоположение метеостанции Сухана (Якутия, Россия): широта 68.62 долгота 118.30 высота над уровнем моря 77 м.

В архиве по умолчанию представлена погода в Сухане за последнюю неделю. Архивные данные за месяц целиком и за предыдущие месяцы, начиная с января 2011 года, Вы можете получить, выбрав интересующий диапазон дат из раскрывающегося списка и нажав кнопку "Ввод!".


*Определитесь, кто Вы:
робот инопланетянин человек

Внимание! Время в таблицах - всемирное. Для получения местного времени необходимо прибавить поправку, которая равна 9 ч.

Смотрите также архив погоды в соседних городах и на ближайших метеорологических станциях:

Погода в Джарджане (Якутия, Россия) (231 км)
Погода в Оленеке (Якутия, Россия) (240 км)
Погода в Джалинде (Якутия, Россия) (241 км)
Погода в Эйке (Якутия, Россия) (291 км)
Погода в Жиганске (Якутия, Россия) (294 км)
Погода в Шелагонцах (Якутия, Россия) (316 км)
Погода в Полярном (Якутия, Россия) (326 км)
Погода в Саскылахе (Якутия, Россия) (406 км)
Погода в Тюмяти (Якутия, Россия) (415 км)
Погода в Айхале (Якутия, Россия) (419 км)

Пояснения к столбцам:

Ветер - указаны скорость ветра в м/с - средняя за 10 мин, порывы в срок и между сроками (в фигурных скобках) и направление, откуда дует ветер: С - северный, СВ - северо-восточный, В - восточный, ЮВ - юго-восточный, Ю - южный, ЮЗ - юго-западный, З - западный, СЗ - северо-западный.
Видимость - горизонтальная дальность видимости в метрах или километрах. При видимости от 1 до 10 км при отсутствии осадков обычно наблюдается дымка, при ухудшении видимости до 1 км и менее - туман. В сухую погоду видимость может ухудшаться дымом, пылью или мглою.
Явления - указаны атмосферные явления, наблюдавшиеся в срок или в последний час перед сроком; фигурными скобками обозначены явления, наблюдавшиеся между сроками (за 1-3 часа до срока); квадратными скобками обозначены град или гололедные отложения с указанием их диаметра в мм.
Облачность - указаны через наклонную черту общая и нижняя облачность в баллах и высота нижней границы облаков в метрах; квадратными скобками обозначены формы облаков: Ci - перистые, Cs - перисто-слоистые, Cc - перисто-кучевые, Ac - высококучевые, As - высокослоистые, Sc - слоисто-кучевые, Ns - слоисто-дождевые, Cu - кучевые, Cb - кучево-дождевые. Подробнее классификацию облаков см. в Атласе облаков (PDF).
T - Температура воздуха - температура, измеренная на высоте 2 м над землей.
Td - Температура точки росы - температура, при понижении до которой содержащийся в воздухе водяной пар достигнет насыщения.
f - Относительная влажность воздуха - влажноcть воздуха, измеренная на высоте 2 м над землей.
Te - Эффективная температура - температура, которую ощущает одетый по сезону человек в тени. Характеристика душности погоды. При расчете учитывается влияние влажности воздуха и скорости ветра на теплоощущения человека.
Tes - Эффективная температура на солнце - температура, которую ощущает человек, с поправкой на солнечный нагрев. Характеристика знойности погоды. Зависит от высоты солнца над горизонтом, облачности и скорости ветра. Ночью, в пасмурную погоду, а также при ветре 12 м/с и более поправка равна нулю.
P - Атмосферное давление - приведенное к уровню моря атмосферное давление.
Po - Атмосферное давление - измеренное на уровне метеостанции атмосферное давление.
Tmin - Минимальная температура - минимум температуры воздуха на высоте 2 м над землей.
Tmax - Максимальная температура - максимум температуры воздуха на высоте 2 м над землей.
R - Количество осадков - Количество выпавших осадков за период времени, мм. При наведении курсора мыши на число - период времени, за который выпало указанное количество осадков.
R24 - Количество осадков - Количество выпавших осадков за 24 часа, мм.
S - Снежный покров - Высота снежного покрова, см. При наведении курсора мыши на число - состояние снежного покрова и степень покрытия местности в баллах.